Weather History for Jacksonville Craig, FL

Change the Weather History Date:

Sunday, October 16, 2011

  Actual Average Record
Temperature  
Mean Temperature 72 °F -  
Max Temperature 82 °F 77 °F 84 °F (2005)
Min Temperature 61 °F 61 °F 48 °F (2004)
Cooling Degree Days 7    
Growing Degree Days 22 (Base 50)    
Moisture  
Dew Point 59 °F    
Average Humidity 65    
Maximum Humidity 87    
Minimum Humidity 38    
Precipitation  
Precipitation 0.00 in - - ()
Sea Level Pressure  
Sea Level Pressure 30.09 in    
Wind  
Wind Speed 4 mph (NE)    
Max Wind Speed 12 mph    
Max Gust Speed 16 mph    
Visibility 10 miles    
Events      
Averages and records for this station are not official NWS values.
T = Trace of Precipitation, MM = Missing Value Source: NWS Daily Summary

Daily Weather History Graph

Daily Weather History Graph

Search for Another Location

Airport:

Trip Planner

Search our weather history database for the weather conditions in past years. The results will help you decide how hot, cold, wet, or windy it might be!

Date:

Astronomy

Oct. 16, 2011 Rise Set
Actual Time 7:28 AM EDT 6:54 PM EDT
Civil Twilight 7:04 AM EDT 7:18 PM EDT
Nautical Twilight 6:36 AM EDT 7:46 PM EDT
Astronomical Twilight 6:08 AM EDT 8:14 PM EDT
Moon 9:56 PM EDT (10/16) 11:26 AM EDT (10/16)
Length of Visible Light 12h 13m
Length of Day
11h 25m
Waning Gibbous, 82% of the Moon is Illuminated
Oct 16
Waning Gibbous
Oct 19
Last Quarter
Oct 26
New
Nov 2
First Quarter
Nov 10
Full

Hourly Weather History & Observations

Time (EDT) Temp. Heat Index Dew Point Humidity Pressure Visibility Wind Dir Wind Speed Gust Speed Precip Events Conditions
12:53 AM 64.0 °F - 60.1 °F 87% 30.11 in 10.0 mi Calm Calm - N/A   Clear
2:53 AM 64.0 °F - 60.1 °F 87% 30.09 in 10.0 mi Calm Calm - N/A   Clear
5:53 AM 62.1 °F - 57.9 °F 86% 30.10 in 10.0 mi NNW 4.6 mph - N/A   Clear
8:53 AM 68.0 °F - 57.9 °F 70% 30.13 in 10.0 mi North 5.8 mph - N/A   Clear
9:53 AM 73.0 °F - 57.9 °F 59% 30.14 in 10.0 mi NNE 6.9 mph - N/A   Clear
10:53 AM 78.1 °F - 60.1 °F 54% 30.15 in 10.0 mi NE 11.5 mph - N/A   Clear
11:53 AM 80.1 °F 80.2 °F 55.9 °F 43% 30.15 in 10.0 mi ENE 6.9 mph 16.1 mph N/A   Clear
12:53 PM 81.0 °F 81.0 °F 57.0 °F 44% 30.12 in 10.0 mi NE 6.9 mph - N/A   Clear
1:53 PM 82.0 °F 82.0 °F 57.9 °F 44% 30.10 in 10.0 mi ENE 8.1 mph - N/A   Clear
2:53 PM 82.0 °F 81.3 °F 54.0 °F 38% 30.08 in 10.0 mi NNE 6.9 mph - N/A   Clear
3:53 PM 81.0 °F 81.1 °F 57.9 °F 45% 30.06 in 10.0 mi ENE 8.1 mph - N/A   Clear
4:53 PM 80.1 °F 80.9 °F 60.1 °F 50% 30.06 in 10.0 mi ENE 8.1 mph - N/A   Clear
5:53 PM 78.1 °F - 60.1 °F 54% 30.06 in 10.0 mi NE 6.9 mph - N/A   Clear
6:53 PM 73.9 °F - 60.1 °F 62% 30.05 in 10.0 mi NE 3.5 mph - N/A   Clear
7:53 PM 66.9 °F - 62.1 °F 84% 30.06 in 10.0 mi Calm Calm - N/A   Clear
8:53 PM 66.0 °F - 60.1 °F 81% 30.06 in 10.0 mi Calm Calm - N/A   Clear
9:53 PM 64.0 °F - 59.0 °F 84% 30.06 in 10.0 mi Calm Calm - N/A   Clear
10:53 PM 63.0 °F - 57.9 °F 84% 30.07 in 10.0 mi Calm Calm - N/A   Clear
11:53 PM 61.0 °F - 57.0 °F 87% 30.07 in 10.0 mi Calm Calm - N/A   Clear